Home   Weather   Ontario   Past weeks

Flag for USA Past Weather in Ontario, Oregon, USA — Yesterday and Last 2 Weeks

58 °F

Scattered clouds.

Feels Like: 58 °F
Forecast: 47 / 67 °F
Wind: 3 mph from North

Location: Ontario Municipal Airport

Current Time: Oct 24, 2016 at 2:08:22 PM

Latest Report: Oct 24, 2016 at 12:53 PM

Visibility: 10 mi

Pressure: 29.94 "Hg (27.69 "Hg at 656m altitude)

Humidity: 67%

Dew Point: 47 °F

Location of OntarioLocation

Past Weather in Ontario — Graph


Ontario Temperature Yesterday

Maximum temperature yesterday: 67 °F (at 3:53 PM)
Minimum temperature yesterday: 40 °F (at 6:53 AM)
Average temperature yesterday: 52 °F

High & Low Weather Summary for the Past Weeks

High80 °F (Oct 9, 3:53 PM)93% (Oct 13, 7:53 PM)30.52 "Hg (Oct 13, 7:53 PM)
Low28 °F (Oct 12, 7:53 AM)23% (Oct 11, 3:53 PM)29.44 "Hg (Oct 16, 8:53 PM)
Average52 °F64%29.99 "Hg
* Reported Oct 9 12:53 PM — Oct 24 12:53 PM, Ontario, Weather by CustomWeather, © 2016

Note: Actual official high and low records may vary slightly from our data, if they occured in-between our weather recording intervals... More about our weather records


Ontario Weather History for the Previous 24 Hours

Scroll right to see more
Time TempWeatherWind HumidityBarometerVisibility
12:53 PM
Mon, Oct 24
58 °FScattered clouds.3 mph67%29.94 "Hg10 mi
11:53 AM56 °FLight rain. Mostly cloudy.16 mph70%29.94 "Hg10 mi
10:53 AM56 °FMostly cloudy.5 mph70%29.96 "Hg10 mi
9:53 AM54 °FLight rain. Mostly cloudy.N/A74%29.94 "Hg10 mi
8:53 AM53 °FMostly cloudy.3 mph72%29.93 "Hg10 mi
7:53 AM51 °FMostly cloudy.5 mph74%29.91 "Hg10 mi
6:53 AM50 °FOvercast.6 mph74%29.90 "Hg10 mi
5:53 AM51 °FPassing clouds.No wind69%29.88 "Hg10 mi
4:53 AM50 °FClear.3 mph74%29.88 "Hg10 mi
3:53 AM49 °FPassing clouds.5 mph74%29.88 "Hg10 mi
2:53 AM49 °FClear.5 mph74%29.88 "Hg10 mi
1:53 AM50 °FClear.5 mph71%29.88 "Hg10 mi
12:53 AM49 °FClear.5 mph74%29.90 "Hg10 mi
11:53 PM
Sun, Oct 23
50 °FClear.5 mph71%29.90 "Hg10 mi
10:53 PM52 °FClear.3 mph69%29.92 "Hg10 mi
9:53 PM54 °FClear.6 mph64%29.93 "Hg10 mi
8:53 PM56 °FClear.3 mph60%29.93 "Hg10 mi
7:53 PM56 °FClear.3 mph62%29.94 "Hg10 mi
6:53 PM60 °FSunny.3 mph53%29.93 "Hg10 mi
5:53 PM64 °FSunny.5 mph49%29.94 "Hg10 mi
4:53 PM66 °FSunny.5 mph42%29.96 "Hg10 mi
3:53 PM67 °FSunny.No wind39%29.97 "Hg10 mi
2:53 PM64 °FSunny.No wind43%30.00 "Hg10 mi
Weather by CustomWeather, © 2016

See weather overviewHow to use our weather pages